[[{"header":{"parameterUnit":"m.s-1","parameterCategory":1,"la1":30.2991,"la2":30.254,"lo1":-89.0895,"lo2":-89.0444,"dy":0.0017,"dx":0.0017,"nx":28,"ny":28,"refTime":"2025-04-27T21:00:00:Z","depth":0,"parameterNumber":2,"parameterNumberName":"U-component_of_WINDS"},"data":[0,0,0,0,0,0,0,0,0,0,0,0,0,0,0,0,0,0,0,0,0,0,0,0,0,0,0,0,0,0,0,0,0,0,0,0,0,0,0,0,0,0,0,0,0,0,0,0,0,0,0,0,0,0,0,0,0,0,1.8854,1.8855,0,1.8917,1.8918,1.8919,1.8911,1.891,1.8909,1.8908,1.897,1.8973,1.8976,0,0,0,0,0,0,0,0,0,0,0,0,0,1.8723,1.8726,1.8854,1.8855,1.8855,1.8917,1.8918,1.8919,1.8912,1.891,1.8909,1.8908,1.897,1.8973,1.8976,0,0,0,0,0,0,0,0,0,0,0,0,0,1.8782,1.8726,1.8854,1.8859,1.886,1.8917,1.8918,1.8919,1.8912,1.891,1.8909,1.8907,1.8969,1.8972,1.8976,1.9031,0,0,1.8988,1.899,0,0,0,0,0,0,0,0,1.8779,1.8787,1.8858,1.8859,1.886,1.8905,1.8895,1.8956,1.8912,1.8892,1.8908,1.8907,1.895,1.8955,1.897,1.9033,1.9036,1.8988,1.8991,1.8992,1.8994,0,0,0,0,0,0,0,1.8775,1.8784,1.8879,1.8859,1.886,1.8858,1.8864,1.8906,1.8929,1.8894,1.8893,1.8901,1.895,1.8966,1.8972,1.9037,1.8988,1.8992,1.8994,1.8996,1.9146,1.9148,0,0,0,0,0,0,1.877,1.8781,1.8877,1.8881,1.8815,1.8861,1.8869,1.8892,1.8928,1.8932,1.8902,1.8901,1.8961,1.8967,1.8974,1.9038,1.8992,1.8996,1.8998,1.9145,1.9147,1.9149,0,0,0,0,0,0,1.8767,1.8779,1.8874,1.8831,1.8843,1.8865,1.8891,1.8894,1.891,1.8935,1.8938,1.8915,1.896,1.8968,1.9016,1.904,1.8998,1.9001,1.9143,1.9145,1.9148,1.9168,0,0,0,0,0,0,1.8763,1.8778,1.8799,1.8832,1.8845,1.8917,1.8893,1.8897,1.8918,1.8916,1.8948,1.8951,1.8959,1.9011,1.902,1.9045,1.9004,1.9141,1.9144,1.9147,1.9165,1.9171,1.9176,0,0,0,0,0,1.8759,1.8802,1.88,1.8812,1.8873,1.8918,1.8926,1.8935,1.892,1.8941,1.8956,1.895,1.9037,1.9016,1.9026,1.9052,1.9139,1.9143,1.9147,1.9163,1.917,1.9176,0,0,0,0,0,0,1.8771,1.8806,1.8805,1.886,1.8886,1.8917,1.8944,1.8942,1.8972,1.8969,1.8978,1.8985,1.9033,1.9048,1.9024,1.9106,1.9086,1.9092,1.9094,1.9101,1.9106,1.9101,1.9008,0,0,0,0,0,1.878,1.8815,1.8844,1.889,1.8903,1.8921,1.8941,1.8946,1.8973,1.8984,1.9003,1.9028,1.9061,1.9082,1.9114,1.9168,1.9174,1.9192,1.9197,1.9201,1.9205,1.9234,1.9241,1.9161,1.9161,1.9161,0,0,1.8799,1.8823,1.8844,1.8893,1.8914,1.8948,1.8931,1.8968,1.8993,1.8989,1.9035,1.905,1.908,1.9131,1.9154,1.9144,1.9229,1.9206,1.9209,1.9211,1.9238,1.9246,1.9253,1.9163,1.9163,1.9163,0,0,1.8851,1.8874,1.8913,1.8935,1.8967,1.8979,1.8989,1.902,1.903,1.9077,1.9074,1.9104,1.9161,1.9181,1.9199,1.9259,1.9254,1.9269,1.9296,1.9323,1.9329,1.9335,1.9354,1.9361,1.9274,1.9274,1.9274,0,1.887,1.8923,1.8934,1.8972,1.8992,1.8992,1.9031,1.9051,1.9092,1.9106,1.9095,1.9165,1.9185,1.924,1.9255,1.927,1.928,1.9264,1.9328,1.9333,1.9339,1.9357,1.9365,1.9275,1.9275,1.9275,1.9275,0,1.8944,1.8981,1.9009,1.9049,1.9073,1.9112,1.9127,1.915,1.9153,1.9166,1.9213,1.9237,1.9273,1.9287,1.929,1.9342,1.9335,1.9326,1.9305,1.9348,1.9365,1.9373,1.9278,1.9277,1.9277,1.9276,0,0,1.9003,1.9049,1.9059,1.9077,1.9113,1.9141,1.9179,1.9215,1.9233,1.9262,1.9293,1.9341,1.9333,1.9353,1.9359,1.9383,1.9427,1.9371,1.9372,1.9379,1.9484,1.9488,1.9497,1.9425,1.9426,1.9428,1.9481,0,1.9057,1.9126,1.9136,1.9196,1.9229,1.9229,1.9262,1.9287,1.93,1.9329,1.9344,1.9377,1.9365,1.9377,1.9401,1.9416,1.9448,1.9413,1.9452,1.9453,1.9442,1.9506,1.9511,1.956,1.9488,1.9489,1.949,0,1.9128,1.9159,1.9222,1.9253,1.9267,1.9297,1.933,1.9359,1.9386,1.9394,1.9417,1.942,1.9458,1.9437,1.9489,1.9466,1.9482,1.9492,1.9494,1.9496,1.9472,1.9507,1.9576,1.9582,1.9501,1.95,1.9499,0,1.9163,1.922,1.9265,1.928,1.9317,1.9338,1.9354,1.9381,1.9401,1.9431,1.9444,1.9477,1.9494,1.9519,1.953,1.9515,1.9581,1.9562,1.9587,1.9587,1.9599,1.9597,1.9669,1.9614,1.9614,1.9614,1.9613,0,1.922,1.9258,1.928,1.9307,1.935,1.9362,1.9403,1.9419,1.9442,1.9472,1.9474,1.9501,1.9516,1.9545,1.9554,1.9594,1.9603,1.9609,1.961,1.9607,1.9606,1.9617,1.9613,1.9616,1.9615,1.9615,1.9614,0,1.9264,1.9281,1.933,1.9361,1.937,1.94,1.9426,1.9452,1.9466,1.9503,1.9512,1.9533,1.9567,1.9581,1.9623,1.9629,1.9675,1.9675,1.9666,1.9666,1.9689,1.9686,1.9768,1.9778,1.9719,1.9719,1.972,0,1.9299,1.9328,1.9363,1.9383,1.94,1.9433,1.9454,1.9468,1.9489,1.9523,1.9545,1.9579,1.9607,1.9662,1.968,1.9712,1.9712,1.9738,1.9716,1.9712,1.9709,1.9707,1.9709,1.9741,1.9742,1.9742,1.9743,0,1.9357,1.9364,1.9395,1.9429,1.9454,1.9482,1.9508,1.9524,1.9541,1.9566,1.9601,1.9623,1.9667,1.97,1.9733,1.9749,1.9748,1.975,1.9757,1.9753,1.9745,1.9748,1.9674,1.9747,1.9747,1.9747,1.9746,1.9746,1.9396,1.9421,1.945,1.9484,1.9505,1.953,1.9556,1.9573,1.9603,1.9639,1.9646,1.9683,1.971,1.9754,1.9771,1.98,1.9793,1.9804,1.9806,1.9808,1.9809,1.9743,1.9807,1.9806,1.9806,1.9806,1.9806,0,1.9452,1.9471,1.9502,1.9539,1.9566,1.9565,1.9594,1.9616,1.9649,1.9675,1.9703,1.9743,1.9776,1.9797,1.983,1.9849,1.9849,1.9857,1.9854,1.9857,1.9814,1.9804,1.9856,1.9856,1.9856,1.9856,1.9856,1.9856,1.9484,1.9527,1.9537,1.959,1.9608,1.9646,1.9662,1.9685,1.9705,1.975,1.9777,1.9792,1.9815,1.985,1.9879,1.9884,1.9895,1.9903,1.9908,1.9866,1.9861,1.9856,1.9846,1.9906,1.9906,1.9948,1.9949,1.9949]},{"header":{"parameterUnit":"m.s-1","parameterCategory":1,"la1":30.2991,"la2":30.254,"lo1":-89.0895,"lo2":-89.0444,"dy":0.0017,"dx":0.0017,"nx":28,"ny":28,"refTime":"2025-04-27T21:00:00:Z","depth":0,"parameterNumber":3,"parameterNumberName":"V-component_of_WINDS"},"data":[0,0,0,0,0,0,0,0,0,0,0,0,0,0,0,0,0,0,0,0,0,0,0,0,0,0,0,0,0,0,0,0,0,0,0,0,0,0,0,0,0,0,0,0,0,0,0,0,0,0,0,0,0,0,0,0,0,0,0.7277,0.7277,0,0.7302,0.7302,0.7302,0.7269,0.7267,0.7266,0.7265,0.7292,0.7294,0.7296,0,0,0,0,0,0,0,0,0,0,0,0,0,0.72,0.7201,0.7277,0.7277,0.7277,0.7302,0.7302,0.7302,0.7269,0.7267,0.7266,0.7264,0.7292,0.7294,0.7296,0,0,0,0,0,0,0,0,0,0,0,0,0,0.723,0.7202,0.7277,0.7263,0.7262,0.7302,0.7302,0.7302,0.7269,0.7267,0.7265,0.7264,0.7291,0.7294,0.7296,0.735,0,0,0.7305,0.7306,0,0,0,0,0,0,0,0,0.7228,0.7233,0.7265,0.7264,0.7263,0.728,0.7285,0.7319,0.727,0.7267,0.7265,0.7263,0.729,0.7293,0.7301,0.7352,0.7353,0.7305,0.7307,0.7308,0.7309,0,0,0,0,0,0,0,0.7226,0.7231,0.7287,0.7265,0.7265,0.7256,0.7258,0.7291,0.7288,0.7267,0.7264,0.7268,0.7289,0.7299,0.7302,0.7353,0.7305,0.7308,0.7309,0.731,0.7447,0.7449,0,0,0,0,0,0,0.7225,0.723,0.7286,0.7287,0.7241,0.7259,0.7262,0.7277,0.7288,0.7288,0.7269,0.7266,0.7295,0.7299,0.7303,0.7366,0.7308,0.7311,0.7312,0.7445,0.7448,0.745,0,0,0,0,0,0,0.7224,0.7231,0.7285,0.7258,0.7264,0.7262,0.7279,0.7278,0.7288,0.729,0.7289,0.728,0.7294,0.7299,0.7338,0.7366,0.7312,0.7315,0.7443,0.7446,0.7449,0.7493,0,0,0,0,0,0,0.7222,0.723,0.7251,0.7259,0.7266,0.732,0.7281,0.728,0.7292,0.7289,0.7299,0.7299,0.7293,0.7334,0.7341,0.7369,0.7317,0.7441,0.7444,0.7448,0.7489,0.7497,0.7504,0,0,0,0,0,0.7219,0.7263,0.7252,0.7259,0.7291,0.7322,0.7326,0.7317,0.7295,0.7315,0.7316,0.7299,0.7362,0.7339,0.7346,0.7375,0.7439,0.7443,0.7448,0.7486,0.7495,0.7504,0,0,0,0,0,0,0.726,0.7264,0.7252,0.7299,0.731,0.7316,0.7342,0.7328,0.7346,0.7341,0.7329,0.7332,0.7374,0.7379,0.7353,0.7427,0.7397,0.7403,0.7423,0.7432,0.744,0.7438,0.7319,0,0,0,0,0,0.7274,0.7298,0.7301,0.7342,0.7348,0.7344,0.7357,0.7349,0.736,0.7365,0.7369,0.738,0.7402,0.7418,0.7438,0.7489,0.7491,0.7513,0.752,0.7526,0.7532,0.7558,0.7568,0.7464,0.7464,0.7464,0,0,0.7304,0.7309,0.7326,0.735,0.7358,0.7383,0.7348,0.7377,0.7395,0.7369,0.7407,0.741,0.7422,0.7467,0.7487,0.7472,0.756,0.7532,0.7537,0.7539,0.7564,0.7573,0.7582,0.7467,0.7467,0.7466,0,0,0.7372,0.7379,0.7413,0.7421,0.7433,0.7429,0.7438,0.7445,0.7446,0.7483,0.7463,0.7485,0.7524,0.7533,0.7543,0.7612,0.7597,0.7619,0.7659,0.7684,0.7692,0.77,0.7724,0.7733,0.7625,0.7625,0.7625,0,0.7408,0.7445,0.7433,0.7463,0.7474,0.745,0.7485,0.7494,0.7512,0.752,0.7502,0.7549,0.7556,0.7603,0.7619,0.7628,0.7637,0.7619,0.7692,0.7699,0.7706,0.7729,0.7738,0.7627,0.7627,0.7627,0.7627,0,0.7489,0.7515,0.7542,0.7559,0.7573,0.7605,0.7598,0.7614,0.7604,0.7602,0.764,0.7646,0.7667,0.7678,0.7669,0.7723,0.7713,0.7694,0.7663,0.7718,0.774,0.7749,0.7631,0.763,0.7629,0.7629,0,0,0.7585,0.7593,0.7603,0.761,0.762,0.764,0.7671,0.769,0.7704,0.7717,0.7742,0.7774,0.7756,0.7767,0.7759,0.7782,0.7835,0.776,0.776,0.7774,0.7895,0.7909,0.792,0.7825,0.7826,0.7828,0.7894,0,0.7652,0.7705,0.7694,0.7746,0.777,0.7746,0.7773,0.7782,0.7781,0.78,0.7799,0.7822,0.7797,0.7803,0.7824,0.7824,0.786,0.7819,0.7848,0.785,0.7847,0.7931,0.7947,0.8009,0.7902,0.7903,0.7904,0,0.7739,0.7754,0.7807,0.7812,0.7822,0.7846,0.7862,0.7882,0.7891,0.7888,0.79,0.7887,0.7917,0.7885,0.7926,0.7899,0.791,0.7911,0.7913,0.7916,0.7881,0.7937,0.8029,0.8038,0.7918,0.7917,0.7916,0,0.7803,0.7836,0.7872,0.7879,0.7886,0.7903,0.7907,0.7914,0.7926,0.7941,0.7948,0.7966,0.7977,0.7991,0.7983,0.796,0.8025,0.7992,0.8024,0.8024,0.804,0.8039,0.8135,0.8046,0.8046,0.8046,0.8045,0,0.788,0.7914,0.7901,0.7924,0.7961,0.7947,0.7984,0.7985,0.7992,0.8014,0.7995,0.8016,0.8003,0.8023,0.8017,0.8052,0.8057,0.8055,0.8054,0.8058,0.8058,0.8065,0.8061,0.8048,0.8048,0.8047,0.8047,0,0.7958,0.7951,0.7989,0.7992,0.7993,0.802,0.8023,0.8043,0.804,0.8068,0.8074,0.8069,0.8091,0.8084,0.8109,0.8104,0.8149,0.8141,0.8145,0.8144,0.8176,0.8173,0.828,0.8294,0.8196,0.8197,0.8197,0,0.8008,0.8034,0.8038,0.8051,0.8056,0.8078,0.8089,0.8077,0.809,0.8102,0.8121,0.8141,0.8157,0.8194,0.8193,0.8211,0.8204,0.824,0.8207,0.821,0.8205,0.8203,0.8206,0.8247,0.8249,0.8249,0.825,0,0.8097,0.8092,0.811,0.8126,0.8141,0.8153,0.8164,0.8175,0.8163,0.8179,0.8201,0.8214,0.8238,0.8258,0.8274,0.8278,0.8262,0.826,0.8269,0.8274,0.8275,0.8275,0.8164,0.8258,0.8258,0.8257,0.8257,0.8256,0.8163,0.8184,0.819,0.821,0.8217,0.8227,0.8246,0.8245,0.8263,0.8281,0.8272,0.8298,0.8305,0.8325,0.8331,0.8351,0.8337,0.8349,0.8352,0.8355,0.8359,0.8271,0.8354,0.8353,0.8353,0.8353,0.8353,0,0.8251,0.8254,0.8272,0.8287,0.8303,0.8285,0.8296,0.831,0.8333,0.834,0.8356,0.8381,0.84,0.84,0.8418,0.8434,0.8427,0.8439,0.8438,0.8439,0.8371,0.8362,0.8444,0.8444,0.8444,0.8444,0.8444,0.8444,0.8299,0.8333,0.8329,0.8366,0.8368,0.8392,0.84,0.8409,0.8415,0.8444,0.8459,0.8458,0.8463,0.8481,0.8498,0.8497,0.8504,0.8519,0.8516,0.8453,0.8444,0.8435,0.8427,0.8521,0.8521,0.8582,0.8583,0.8583]}]]